San Jose, CA

1:21 AM PDT on July 23, 2017 (GMT -0700)
San Jose International

Weather History for KSJC - March, 2013

Change the Weather History Date:

Friday, March 29, 2013

  Actual Average Record
Temperature  
Mean Temperature 66 °F 57 °F  
Max Temperature 78 °F 67 °F 81 °F (1968)
Min Temperature 53 °F 47 °F 30 °F (1895)
Degree Days  
Heating Degree Days 0 8  
Month to date heating degree days 247 260  
Since 1 July heating degree days 1853 1925  
Cooling Degree Days 1 0  
Month to date cooling degree days 1 0  
Year to date cooling degree days 1 0  
Growing Degree Days 16 (Base 50)    
Moisture  
Dew Point 51 °F    
Average Humidity 68    
Maximum Humidity 93    
Minimum Humidity 42    
Precipitation  
Precipitation T in 0.06 in 0.60 in (1914)
Month to date precipitation 0.83 2.43  
Year to date precipitation 1.89 8.61  
Since 1 July precipitation 9.08  
Sea Level Pressure  
Sea Level Pressure 30.06 in    
Wind  
Wind Speed 4 mph (WNW)    
Max Wind Speed 18 mph    
Max Gust Speed 21 mph    
Visibility 10 miles    
Events Rain    
T = Trace of Precipitation, MM = Missing Value Source: NWS Daily Summary

Daily Weather History Graph

Daily Weather History Graph

Search for Another Location

Airport or City:

Trip Planner

Search our weather history database for the weather conditions in past years. The results will help you decide how hot, cold, wet, or windy it might be!

Date:

Astronomy

Mar. 29, 2013 Rise Set
Actual Time 6:57 AM PDT 7:28 PM PDT
Civil Twilight 6:31 AM PDT 7:54 PM PDT
Nautical Twilight 6:00 AM PDT 8:25 PM PDT
Astronomical Twilight 5:28 AM PDT 8:56 PM PDT
Moon 10:29 PM PDT (3/29) 8:13 AM PDT (3/29)
Length of Visible Light 13h 23m
Length of Day
12h 30m
Waning Gibbous, 93% of the Moon is Illuminated
Mar 29
Waning Gibbous
Apr 2
Last Quarter
Apr 10
New
Apr 18
First Quarter
Apr 25
Full

Hourly Weather History & Observations

Time (PDT) Temp. Dew Point Humidity Pressure Visibility Wind Dir Wind Speed Gust Speed Precip Events Conditions
12:53 AM 54.0 °F 51.1 °F 90% 30.09 in 10.0 mi WNW 3.5 mph - N/A   Clear
1:09 AM 53.6 °F 51.8 °F 94% 30.09 in 10.0 mi WNW 4.6 mph - N/A   Mostly Cloudy
1:40 AM 55.4 °F 51.8 °F 88% 30.09 in 10.0 mi Calm Calm - N/A   Scattered Clouds
1:53 AM 55.0 °F 52.0 °F 89% 30.09 in 10.0 mi Calm Calm - N/A   Partly Cloudy
2:53 AM 54.0 °F 52.0 °F 93% 30.09 in 10.0 mi Calm Calm - N/A   Partly Cloudy
3:16 AM 53.6 °F 51.8 °F 94% 30.08 in 10.0 mi West 3.5 mph - N/A   Mostly Cloudy
3:53 AM 54.0 °F 52.0 °F 93% 30.08 in 10.0 mi Calm Calm - N/A   Overcast
4:53 AM 54.0 °F 50.0 °F 86% 30.08 in 10.0 mi Calm Calm - N/A   Overcast
5:53 AM 54.0 °F 50.0 °F 86% 30.09 in 10.0 mi Calm Calm - N/A   Overcast
6:53 AM 54.0 °F 50.0 °F 86% 30.09 in 10.0 mi Calm Calm - N/A   Overcast
7:53 AM 54.0 °F 50.0 °F 86% 30.09 in 7.0 mi East 3.5 mph - N/A   Mostly Cloudy
8:17 AM 55.4 °F 51.8 °F 88% 30.09 in 7.0 mi Calm Calm - N/A   Partly Cloudy
8:53 AM 57.9 °F 52.0 °F 81% 30.09 in 7.0 mi Calm Calm - N/A   Clear
9:53 AM 59.0 °F 51.1 °F 75% 30.09 in 8.0 mi Calm Calm - N/A   Clear
10:53 AM 63.0 °F 52.0 °F 67% 30.08 in 9.0 mi Calm Calm - N/A   Clear
11:53 AM 68.0 °F 52.0 °F 56% 30.07 in 10.0 mi Calm Calm - N/A   Clear
12:53 PM 72.0 °F 52.0 °F 49% 30.06 in 10.0 mi Variable 3.5 mph - N/A   Clear
1:53 PM 73.9 °F 51.1 °F 45% 30.04 in 10.0 mi Calm Calm - N/A   Clear
2:53 PM 78.1 °F 53.1 °F 42% 30.01 in 10.0 mi WNW 11.5 mph - 0.00 in Rain Light Rain
3:53 PM 75.9 °F 52.0 °F 43% 30.00 in 10.0 mi WNW 12.7 mph - N/A   Partly Cloudy
4:53 PM 72.0 °F 51.1 °F 48% 30.00 in 10.0 mi NW 11.5 mph - N/A   Clear
5:53 PM 71.1 °F 51.1 °F 49% 30.01 in 10.0 mi NW 13.8 mph - N/A   Clear
6:53 PM 64.9 °F 52.0 °F 63% 30.02 in 10.0 mi West 13.8 mph - N/A   Clear
7:53 PM 63.0 °F 51.1 °F 65% 30.02 in 10.0 mi West 8.1 mph - N/A   Clear
8:53 PM 63.0 °F 51.1 °F 65% 30.04 in 10.0 mi WNW 6.9 mph - N/A   Clear
9:53 PM 62.1 °F 50.0 °F 65% 30.05 in 10.0 mi West 5.8 mph - N/A   Clear
10:53 PM 61.0 °F 52.0 °F 72% 30.05 in 10.0 mi West 3.5 mph - N/A   Clear
11:53 PM 60.1 °F 51.1 °F 72% 30.06 in 10.0 mi NNW 5.8 mph - N/A   Clear